Weather History for Sallisaw, OK

Change the Weather History Date:

Saturday, January 4, 2014

  Actual Average Record
Temperature  
Mean Temperature 40 °F -  
Max Temperature 50 °F 47 °F 71 °F (1950)
Min Temperature 30 °F 25 °F 3 °F (1959)
Degree Days  
Heating Degree Days 25    
Moisture  
Dew Point 33 °F    
Average Humidity 70    
Maximum Humidity 81    
Minimum Humidity 64    
Precipitation  
Precipitation 0.00 in - - ()
Sea Level Pressure  
Sea Level Pressure 29.89 in    
Wind  
Wind Speed 8 mph (ESE)    
Max Wind Speed 12 mph    
Max Gust Speed 17 mph    
Visibility 10 miles    
Events      
Averages and records for this station are not official NWS values.
T = Trace of Precipitation, MM = Missing Value Source: NWS Daily Summary

Daily Weather History Graph

Daily Weather History Graph

Search for Another Location

Airport:

Trip Planner

Search our weather history database for the weather conditions in past years. The results will help you decide how hot, cold, wet, or windy it might be!

Date:

Astronomy

Jan. 04, 2014 Rise Set
Actual Time 7:28 AM CST 5:19 PM CST
Civil Twilight 7:00 AM CST 5:48 PM CST
Nautical Twilight 6:28 AM CST 6:19 PM CST
Astronomical Twilight 5:58 AM CST 6:50 PM CST
Moon 9:43 AM CST (1/4) 9:30 PM CST (1/4)
Length of Visible Light 10h 47m
Length of Day
9h 51m
Waxing Crescent, 15% of the Moon is Illuminated
Jan 4
Waxing Crescent
Jan 7
First Quarter
Jan 15
Full
Jan 23
Last Quarter
Jan 30
New

Hourly Weather History & Observations

Time (CST) Temp. Windchill Dew Point Humidity Pressure Visibility Wind Dir Wind Speed Gust Speed Precip Events Conditions
12:15 AM 32.0 °F 24.8 °F 21.2 °F 64% 30.05 in 10.0 mi East 8.1 mph - N/A   Clear
12:35 AM 32.0 °F 25.6 °F 21.2 °F 64% 30.04 in 10.0 mi East 6.9 mph - N/A   Clear
12:55 AM 32.0 °F 24.8 °F 21.2 °F 64% 30.03 in 10.0 mi East 8.1 mph - N/A   Clear
1:15 AM 32.0 °F 24.8 °F 21.2 °F 64% 30.03 in 10.0 mi ENE 8.1 mph - N/A   Clear
1:35 AM 32.0 °F 25.6 °F 21.2 °F 64% 30.02 in 10.0 mi East 6.9 mph - N/A   Clear
1:55 AM 30.2 °F 25.4 °F 21.2 °F 69% 30.01 in 10.0 mi East 4.6 mph - N/A   Clear
2:15 AM 32.0 °F 25.6 °F 21.2 °F 64% 30.01 in 10.0 mi East 6.9 mph - N/A   Clear
2:35 AM 32.0 °F 24.8 °F 23.0 °F 69% 30.00 in 10.0 mi East 8.1 mph - N/A   Clear
2:55 AM 32.0 °F 24.8 °F 21.2 °F 64% 29.99 in 10.0 mi East 8.1 mph - N/A   Clear
3:15 AM 32.0 °F 25.6 °F 23.0 °F 69% 29.99 in 10.0 mi East 6.9 mph - N/A   Clear
3:35 AM 32.0 °F 26.4 °F 23.0 °F 69% 29.97 in 10.0 mi ENE 5.8 mph - N/A   Clear
3:55 AM 32.0 °F 27.5 °F 23.0 °F 69% 29.97 in 10.0 mi East 4.6 mph - N/A   Clear
4:15 AM 32.0 °F 25.6 °F 23.0 °F 69% 29.96 in 10.0 mi ENE 6.9 mph - N/A   Clear
4:35 AM 32.0 °F 25.6 °F 23.0 °F 69% 29.95 in 10.0 mi ENE 6.9 mph - N/A   Clear
4:55 AM 32.0 °F 24.8 °F 23.0 °F 69% 29.95 in 10.0 mi East 8.1 mph - N/A   Clear
5:15 AM 32.0 °F 24.2 °F 23.0 °F 69% 29.95 in 10.0 mi East 9.2 mph - N/A   Clear
5:35 AM 32.0 °F 24.8 °F 23.0 °F 69% 29.94 in 10.0 mi East 8.1 mph - N/A   Clear
5:55 AM 32.0 °F 24.8 °F 23.0 °F 69% 29.94 in 10.0 mi ENE 8.1 mph - N/A   Clear
6:15 AM 32.0 °F 25.6 °F 23.0 °F 69% 29.93 in 10.0 mi East 6.9 mph - N/A   Clear
6:35 AM 32.0 °F 25.6 °F 24.8 °F 75% 29.93 in 10.0 mi East 6.9 mph - N/A   Clear
6:55 AM 32.0 °F 24.8 °F 26.6 °F 80% 29.92 in 10.0 mi East 8.1 mph - N/A   Clear
7:15 AM 32.0 °F 24.8 °F 26.6 °F 80% 29.92 in 10.0 mi East 8.1 mph - N/A   Scattered Clouds
7:35 AM 35.6 °F 31.7 °F 30.2 °F 81% 29.91 in 10.0 mi ESE 4.6 mph - N/A   Overcast
7:55 AM 41.0 °F 39.0 °F 32.0 °F 70% 29.92 in 10.0 mi SE 3.5 mph - N/A   Overcast
8:15 AM 42.8 °F 37.0 °F 33.8 °F 70% 29.92 in 10.0 mi SSE 10.4 mph - N/A   Overcast
8:35 AM 44.6 °F 39.2 °F 33.8 °F 66% 29.92 in 10.0 mi South 10.4 mph 16.1 mph N/A   Mostly Cloudy
8:55 AM 44.6 °F 39.7 °F 33.8 °F 66% 29.92 in 10.0 mi South 9.2 mph - N/A   Overcast
9:15 AM 44.6 °F 39.7 °F 35.6 °F 71% 29.92 in 10.0 mi South 9.2 mph - N/A   Mostly Cloudy
9:35 AM 44.6 °F 40.2 °F 35.6 °F 71% 29.92 in 10.0 mi South 8.1 mph - N/A   Overcast
9:55 AM 44.6 °F 39.7 °F 35.6 °F 71% 29.92 in 10.0 mi South 9.2 mph - N/A   Mostly Cloudy
10:15 AM 44.6 °F 39.2 °F 35.6 °F 71% 29.92 in 10.0 mi South 10.4 mph - N/A   Mostly Cloudy
10:35 AM 46.4 °F 41.5 °F 35.6 °F 66% 29.91 in 10.0 mi South 10.4 mph - N/A   Mostly Cloudy
10:55 AM 46.4 °F 41.9 °F 37.4 °F 71% 29.90 in 10.0 mi SSE 9.2 mph - N/A   Mostly Cloudy
11:15 AM 46.4 °F 41.9 °F 37.4 °F 71% 29.90 in 10.0 mi South 9.2 mph - N/A   Mostly Cloudy
11:35 AM 48.2 °F - 37.4 °F 66% 29.88 in 10.0 mi South 8.1 mph 16.1 mph N/A   Mostly Cloudy
11:55 AM 48.2 °F - 37.4 °F 66% 29.86 in 10.0 mi South 8.1 mph - N/A   Mostly Cloudy
12:15 PM 48.2 °F - 39.2 °F 71% 29.84 in 10.0 mi SSE 8.1 mph 17.3 mph N/A   Overcast
12:35 PM 48.2 °F - 39.2 °F 71% 29.83 in 10.0 mi SSE 8.1 mph 16.1 mph N/A   Overcast
12:55 PM 48.2 °F - 39.2 °F 71% 29.81 in 10.0 mi SSE 8.1 mph - N/A   Overcast
1:15 PM 48.2 °F - 39.2 °F 71% 29.81 in 10.0 mi South 10.4 mph - N/A   Mostly Cloudy
1:35 PM 48.2 °F - 39.2 °F 71% 29.80 in 10.0 mi South 9.2 mph - N/A   Mostly Cloudy
1:55 PM 50.0 °F - 39.2 °F 66% 29.80 in 10.0 mi South 10.4 mph - N/A   Mostly Cloudy
2:15 PM 50.0 °F - 41.0 °F 71% 29.80 in 10.0 mi SSE 6.9 mph - N/A   Mostly Cloudy
2:35 PM 50.0 °F - 41.0 °F 71% 29.80 in 10.0 mi SSE 9.2 mph - N/A   Mostly Cloudy
2:55 PM 50.0 °F - 41.0 °F 71% 29.81 in 10.0 mi South 9.2 mph - N/A   Mostly Cloudy
3:15 PM 50.0 °F - 41.0 °F 71% 29.81 in 10.0 mi South 6.9 mph - N/A   Overcast
3:35 PM 50.0 °F - 41.0 °F 71% 29.81 in 10.0 mi South 3.5 mph - N/A   Overcast
3:55 PM 50.0 °F - 41.0 °F 71% 29.82 in 10.0 mi SSE 4.6 mph - N/A   Overcast
4:15 PM 50.0 °F - 41.0 °F 71% 29.82 in 10.0 mi SE 5.8 mph - N/A   Overcast
4:35 PM 50.0 °F - 41.0 °F 71% 29.82 in 10.0 mi East 4.6 mph - N/A   Overcast
4:55 PM 50.0 °F - 41.0 °F 71% 29.82 in 10.0 mi East 3.5 mph - N/A   Overcast
5:15 PM 48.2 °F - 39.2 °F 71% 29.82 in 10.0 mi East 3.5 mph - N/A   Overcast
5:35 PM 48.2 °F - 39.2 °F 71% 29.82 in 10.0 mi East 11.5 mph - N/A   Overcast
5:55 PM 46.4 °F 41.1 °F 37.4 °F 71% 29.82 in 10.0 mi East 11.5 mph 16.1 mph N/A   Overcast
6:15 PM 44.6 °F 39.7 °F 35.6 °F 71% 29.82 in 10.0 mi East 9.2 mph - N/A   Overcast
6:35 PM 44.6 °F 40.7 °F 35.6 °F 71% 29.83 in 10.0 mi East 6.9 mph - N/A   Overcast
6:55 PM 44.6 °F 38.8 °F 35.6 °F 71% 29.83 in 10.0 mi East 11.5 mph 17.3 mph N/A   Overcast
7:15 PM 44.6 °F 39.2 °F 35.6 °F 71% 29.84 in 10.0 mi East 10.4 mph - N/A   Overcast
7:35 PM 44.6 °F 39.7 °F 35.6 °F 71% 29.84 in 10.0 mi East 9.2 mph 16.1 mph N/A   Overcast
7:55 PM 44.6 °F 39.7 °F 35.6 °F 71% 29.84 in 10.0 mi East 9.2 mph - N/A   Overcast
8:15 PM 44.6 °F 39.7 °F 35.6 °F 71% 29.84 in 10.0 mi East 9.2 mph - N/A   Overcast
8:35 PM 44.6 °F 39.7 °F 35.6 °F 71% 29.83 in 10.0 mi ENE 9.2 mph - N/A   Mostly Cloudy
8:55 PM 42.8 °F 38.0 °F 35.6 °F 76% 29.83 in 10.0 mi East 8.1 mph - N/A   Mostly Cloudy
9:15 PM 42.8 °F 38.0 °F 35.6 °F 76% 29.82 in 10.0 mi East 8.1 mph - N/A   Mostly Cloudy
9:35 PM 42.8 °F 38.0 °F 35.6 °F 76% 29.82 in 10.0 mi ENE 8.1 mph - N/A   Overcast
9:55 PM 42.8 °F 38.0 °F 35.6 °F 76% 29.83 in 10.0 mi ENE 8.1 mph - N/A   Mostly Cloudy
10:15 PM 44.6 °F 40.2 °F 35.6 °F 71% 29.83 in 10.0 mi ENE 8.1 mph - N/A   Overcast
10:35 PM 42.8 °F 39.3 °F 35.6 °F 76% 29.82 in 10.0 mi ENE 5.8 mph - N/A   Overcast
10:55 PM 44.6 °F 40.7 °F 35.6 °F 71% 29.81 in 10.0 mi ENE 6.9 mph - N/A   Overcast
11:15 PM 44.6 °F 42.2 °F 35.6 °F 71% 29.81 in 10.0 mi NE 4.6 mph - N/A   Overcast
11:35 PM 44.6 °F 42.2 °F 35.6 °F 71% 29.81 in 10.0 mi NE 4.6 mph - N/A   Overcast
11:55 PM 44.6 °F 43.1 °F 35.6 °F 71% 29.81 in 10.0 mi NE 3.5 mph - N/A   Mostly Cloudy